Content
SEND FEEDBACK

Daily
Averages
Monthly
Summary
Philippines

QUEZON CITY, PHILIPPINES


Home > Asia > Philippines
Elevation: 46 meters     Latitude: 14 39N     Longitude: 121 03E

WEATHER
 
SELECT A DAY
Number of Records: 172,299;   Date Range: 7/1/96 - 7/7/14
 
SHARE

PRINT THIS DATA

[ ← Previous Day ]
WEATHER ALMANAC - 31 JANUARY, 2013
[ Next Day → ]
[ °F ]   °C
Weather ElementAverageHighLow
Temperature26.3 °C30 °C (12:00 pm)22.8 °C (2:00 am)
Dewpoint19.5 °C21.1 °C (8:00 am)17 °C (2:00 am)
Humidity65.1 %83 % (5:00 am)47 % (2:00 pm)
Barometer1015.6 hPa1017.3 hPa (7:00 am)1012.2 hPa (8:00 am)
Wind Speed8.5 km/h16.7 km/h (2:00 pm)
Weather ElementAverage
Visibility9.8 km
Wind DirectionE (86.1 °)

Weather ElementTotal
Precipitation---
Cooling Degree Days8.1 (Base 18.3)
Growing Degree Days16.4 (Base 10)
Averaged from 30 records on 31 January, 2013
WEATHER CONDITIONS BREAKOUT
WIND DIRECTION BREAKOUT
WEATHER BY HOUR - 31 JANUARY, 2013
[ °F ]   °C
Local TimeTemperatureDewpointHumidityBarometerVisibilityWind DirectionWind SpeedGust SpeedPrecipitationEventsConditions
1:00 AM24 °C18 °C69 %1016.3 hPa10 kmVariable3.7 km/hPartly Cloudy
2:00 AM22.8 °C17.2 °C64 %1016.3 hPa9.7 kmCalmHaze
2:00 AM23 °C17 °C69 %1016.3 hPa10 kmCalmPartly Cloudy
3:00 AM23 °C18 °C73 %1015.2 hPa10 kmNW (310°)7.4 km/hScattered Clouds
4:00 AM23 °C19 °C78 %1015.2 hPa10 kmVariable3.7 km/hMostly Cloudy
5:00 AM23.3 °C19.4 °C74 %1016.3 hPa9.7 kmWNW (300°)3.5 km/hHaze
5:00 AM23 °C20 °C83 %1016.3 hPa10 kmVariable3.7 km/hMostly Cloudy
6:00 AM24 °C20 °C78 %1016.3 hPa10 kmNW (310°)7.4 km/hMostly Cloudy
7:00 AM24 °C19 °C73 %1017.3 hPa10 kmNW (310°)7.4 km/hMostly Cloudy
8:00 AM24.4 °C21.1 °C76 %1017.3 hPa9.7 kmNNE (30°)3.5 km/hHaze
8:00 AM25 °C19 °C69 %1012.2 hPa10 kmVariable3.7 km/hPartly Cloudy
9:00 AM27 °C19 °C61 %1017.3 hPa10 kmVariable5.6 km/hMostly Cloudy
10:00 AM28 °C19 °C58 %1017.3 hPa10 kmEast (100°)14.8 km/hMostly Cloudy
11:00 AM29 °C19 °C55 %1017.3 hPa9 kmEast (90°)13 km/hMostly Cloudy
12:00 PM30 °C20 °C55 %1016.3 hPa9 kmEast (90°)11.1 km/hMostly Cloudy
1:00 PM29 °C19 °C55 %1015.2 hPa9 kmEast (100°)13 km/hMostly Cloudy
2:00 PM29.4 °C20 °C47 %1014.2 hPa9.7 kmNE (50°)14.3 km/hHaze
2:00 PM29 °C20 °C58 %1014.2 hPa10 kmNE (50°)16.7 km/hMostly Cloudy
3:00 PM29 °C20 °C58 %1013.2 hPa10 kmSE (130°)14.8 km/hMostly Cloudy
4:00 PM29 °C20 °C58 %1013.2 hPa10 kmNorth (360°)14.8 km/hMostly Cloudy
5:00 PM28.3 °C20 °C52 %1013.9 hPa9.7 kmNE (40°)14.3 km/hPartly Cloudy
5:00 PM28 °C20 °C62 %1013.2 hPa10 kmNE (40°)14.8 km/hMostly Cloudy
6:00 PM28 °C20 °C62 %1014.2 hPa10 kmNorth (10°)11.1 km/hOvercast
7:00 PM27 °C20 °C65 %1014.2 hPa10 kmNNE (30°)14.8 km/hOvercast
8:00 PM26.7 °C20 °C59 %1015.2 hPa9.7 kmNorth (10°)10.8 km/hHaze
8:00 PM27 °C20 °C65 %1015.2 hPa10 kmNorth (10°)11.1 km/hMostly Cloudy
9:00 PM26 °C20 °C69 %1015.2 hPa10 kmNNE (30°)7.4 km/hScattered Clouds
10:00 PM26 °C20 °C69 %1016.3 hPa10 kmNorth (10°)7.4 km/hScattered Clouds
11:00 PM26.1 °C20.6 °C64 %1015.9 hPa9.7 kmCalmHaze
11:00 PM26 °C21 °C74 %1016.3 hPa10 kmCalmMostly Cloudy
Hourly data recorded from RPLL, located 0 kilometers away from Quezon City, Philippines







STORIES FROM OUR PARTNERS